"Pseudo-MPEC" for CDRE5L2

Created 2025 Nov 9 8:35:04 UT using Find_Orb

Click here for an explanation of pseudo-MPECs

 
 Astrometry: 
     CDRE5L2*1C2025 11 08.45913506 02 21.044-18 14 32.89   ~B8CK 19.78GVNEOCPG96
     CDRE5L2 1C2025 11 08.46102106 02 21.019-18 14 15.86   ~B8CK 20.22GVNEOCPG96
     CDRE5L2 1C2025 11 08.46615106 02 20.836-18 13 28.92   ~B8CK 20.40GVNEOCPG96
     CDRE5L2 1C2025 11 08.47127406 02 20.684-18 12 43.42   ~B8CK 19.65GVNEOCPG96
     CDRE5L2 KC2025 11 08.49451406 02 19.842-18 09 10.01   ~B8CZ 20.43GVNEOCPI52
     CDRE5L2 KC2025 11 08.49575106 02 19.820-18 08 58.60   ~B8CZ 20.89GVNEOCPI52
     CDRE5L2 KC2025 11 08.49699606 02 19.806-18 08 47.90   ~B8CZ       VNEOCPI52
     CDRE5L2 KC2025 11 08.49824706 02 19.828-18 08 36.20   ~B8CZ       VNEOCPI52
     CDRE5L2 KB2025 11 09.16230 06 02 24.089-16 29 35.38   ~B98K 20.8 GXNEOCPR49
     CDRE5L2 KB2025 11 09.22403 06 02 22.130-16 20 24.14   ~B98K 20.1 GXNEOCPR49

Station data:
(G96) Mt. Lemmon Survey  (N32.442729 W110.788720)  US/Arizona.  Observer E.
   J. Christensen. Measurers T. Beuden, V. F. Carvajal, D. Fay, J. B.
   Fazekas, D. C. Fuls, A. R. Gibbs, A. D. Grauer, H. Gröller, J. K. Hogan,
   R. A. Kowalski, S. M. Larson, G. J. Leonard, D. Rankin, R. L. Seaman, F.
   C. Shelly, K. W. Wierzchoś. 1.5-m reflector + 10K CCD.
(I52) Steward Observatory, Mt. Lemmon Station  (N32.442570 W110.788920)
   US/Arizona. Measurers T. Beuden, V. F. Carvajal, D. Fay, J. B. Fazekas, D.
   C. Fuls, A. R. Gibbs, A. D. Grauer, H. Gröller, J. K. Hogan, R. A.
   Kowalski, S. M. Larson, G. J. Leonard, D. Rankin, R. L. Seaman, F. C.
   Shelly, K. W. Wierzchoś. 1.0-m prime focus + CCD.
(R49) Observatorio Villuercas-Navezuelas, Navezuelas  (N39.512739 W5.439520)
   Spain.

Orbital elements:  CDRE5L2
   Perihelion 2025 Oct 14.466776 +/- 0.047 TT = 11:12:09.4 (JD 2460962.966776)
Epoch 2025 Nov  9.0 TT = JDT 2460988.5   Earth MOID: 0.0674   Ma: 0.0396
M  11.545311133 +/- 0.34            (J2000 ecliptic)             AutoNEOCP
n   0.452168174 +/- 0.014           Peri.  303.033419 +/- 1.2
a   1.681135509 +/- 0.0348          Node    76.520501 +/- 1.0
e   0.40593074 +/- 0.0127           Incl.    6.170972 +/- 0.24
P   2.180/796.149d         H 24.01  G  0.15   U  9.9
q 0.998710912 +/- 0.00108    Q 2.363560107 +/- 0.0703
From 10 observations 2025 Nov. 8-9 (18.4 hr); mean residual 0".43
Residuals in arcseconds: 
251108 G96  .41-  .02-    251108 I52  .65-  .47+    251109 R49  .10-  .40-    
251108 G96  .17+  .15-    251108 I52  .40-  .59+    251109 R49  .09+  .34+    
251108 G96  .08+  .10+    251108 I52  .03-  .07-    
251108 G96  .41+  1.0-    251108 I52  .85+  .21+    

Ephemerides (geocentric):
Date (UTC) HH   RA             Dec           delta  r     elong  mag " sig PA
---- --------  ------------   ------------  ------ ------ -----  --- --------
2025 11 09 09  06 02 25.527   -15 56 45.10  .08084 1.0377 123.8 20.6 1.67  21
2025 11 09 10  06 02 25.571   -15 50 38.29  .08090 1.0378 123.9 20.6 1.66  21
2025 11 09 11  06 02 25.607   -15 44 31.97  .08096 1.0380 124.0 20.6 1.64  21
2025 11 09 12  06 02 25.634   -15 38 26.13  .08102 1.0381 124.1 20.6 1.62  21
2025 11 09 13  06 02 25.653   -15 32 20.77  .08109 1.0382 124.2 20.6 1.60  22
2025 11 09 14  06 02 25.663   -15 26 15.91  .08115 1.0383 124.3 20.6 1.58  22
2025 11 09 15  06 02 25.665   -15 20 11.54  .08121 1.0384 124.3 20.6 1.55  22
2025 11 09 16  06 02 25.659   -15 14 07.65  .08128 1.0386 124.4 20.6 1.53  23
2025 11 09 17  06 02 25.643   -15 08 04.26  .08134 1.0387 124.5 20.6 1.50  23
2025 11 09 18  06 02 25.620   -15 02 01.36  .08140 1.0388 124.6 20.6 1.47  23
2025 11 09 19  06 02 25.587   -14 55 58.95  .08147 1.0389 124.7 20.6 1.45  24
2025 11 09 20  06 02 25.547   -14 49 57.04  .08153 1.0391 124.8 20.6 1.42  24
2025 11 09 21  06 02 25.498   -14 43 55.62  .08159 1.0392 124.8 20.6 1.38  25
2025 11 09 22  06 02 25.440   -14 37 54.70  .08166 1.0393 124.9 20.6 1.35  25
2025 11 09 23  06 02 25.375   -14 31 54.28  .08172 1.0394 125.0 20.6 1.32  26
2025 11 10 00  06 02 25.300   -14 25 54.36  .08179 1.0396 125.1 20.5 1.28  27
2025 11 10 01  06 02 25.218   -14 19 54.93  .08186 1.0397 125.2 20.5 1.25  27
2025 11 10 02  06 02 25.127   -14 13 56.01  .08192 1.0398 125.3 20.5 1.21  28
2025 11 10 03  06 02 25.027   -14 07 57.58  .08199 1.0399 125.3 20.5 1.17  29
2025 11 10 04  06 02 24.920   -14 01 59.66  .08205 1.0400 125.4 20.5 1.13  30
2025 11 10 05  06 02 24.804   -13 56 02.24  .08212 1.0402 125.5 20.5 1.09  31
2025 11 10 06  06 02 24.679   -13 50 05.32  .08219 1.0403 125.6 20.5 1.05  32
2025 11 10 07  06 02 24.546   -13 44 08.91  .08225 1.0404 125.7 20.5 1.01  34
2025 11 10 08  06 02 24.406   -13 38 13.00  .08232 1.0405 125.8 20.5 .963  35
2025 11 10 09  06 02 24.256   -13 32 17.59  .08239 1.0407 125.8 20.5 .920  37
2025 11 10 10  06 02 24.099   -13 26 22.70  .08246 1.0408 125.9 20.5 .876  39
2025 11 10 11  06 02 23.933   -13 20 28.31  .08252 1.0409 126.0 20.5 .832  41
2025 11 10 12  06 02 23.759   -13 14 34.43  .08259 1.0410 126.1 20.5 .789  43
2025 11 10 13  06 02 23.577   -13 08 41.06  .08266 1.0412 126.2 20.5 .746  46
2025 11 10 14  06 02 23.386   -13 02 48.19  .08273 1.0413 126.3 20.5 .704  49
2025 11 10 15  06 02 23.187   -12 56 55.84  .08280 1.0414 126.3 20.5 .663  52
2025 11 10 16  06 02 22.980   -12 51 04.00  .08287 1.0416 126.4 20.5 .624  57
2025 11 10 17  06 02 22.765   -12 45 12.67  .08294 1.0417 126.5 20.5 .588  61
2025 11 10 18  06 02 22.542   -12 39 21.85  .08301 1.0418 126.6 20.5 .556  67
2025 11 10 19  06 02 22.310   -12 33 31.55  .08308 1.0419 126.7 20.5 .529  73
2025 11 10 20  06 02 22.071   -12 27 41.76  .08315 1.0421 126.7 20.5 .508  80
2025 11 10 21  06 02 21.823   -12 21 52.48  .08322 1.0422 126.8 20.5 .495  87
2025 11 10 22  06 02 21.567   -12 16 03.72  .08329 1.0423 126.9 20.5 .490  95
2025 11 10 23  06 02 21.303   -12 10 15.47  .08336 1.0424 127.0 20.5 .495 103
2025 11 11 00  06 02 21.031   -12 04 27.74  .08343 1.0426 127.1 20.5 .509 111
2025 11 11 01  06 02 20.751   -11 58 40.53  .08350 1.0427 127.2 20.5 .533 118
2025 11 11 02  06 02 20.463   -11 52 53.83  .08357 1.0428 127.2 20.5 .565 125
2025 11 11 03  06 02 20.166   -11 47 07.66  .08364 1.0430 127.3 20.5 .605 131
2025 11 11 04  06 02 19.862   -11 41 22.00  .08372 1.0431 127.4 20.5 .652 137
2025 11 11 05  06 02 19.549   -11 35 36.86  .08379 1.0432 127.5 20.5 .704 141
2025 11 11 06  06 02 19.229   -11 29 52.24  .08386 1.0433 127.6 20.5 .761 145
2025 11 11 07  06 02 18.900   -11 24 08.14  .08393 1.0435 127.7 20.5 .823 149
2025 11 11 08  06 02 18.564   -11 18 24.56  .08401 1.0436 127.7 20.5 .888 152